Location: Unspecified
(0.0000°N, 0.0000°E)
Time: 18:40:01
(UTC+01:00)

ASC 2 Rocket - Visible Passes

Search period start: 03 December 2016 00:00
Search period end: 13 December 2016 00:00
Orbit: 555 x 2346 km, 24.0° (Epoch: 03 December)

Date Brightness Start Highest point End Pass type
(mag) Time Alt. Az. Time Alt. Az. Time Alt. Az.
03 Dec 6.1 20:57:11 10° NW 21:09:39 37° NNE 21:09:39 37° NNE visible
03 Dec 7.3 23:02:43 10° WNW 23:04:31 15° NW 23:04:31 15° NW visible
04 Dec 6.4 19:49:05 10° NW 20:01:09 32° NNE 20:07:55 21° NE visible
04 Dec 6.3 21:54:15 10° NW 22:02:46 38° NNW 22:02:46 38° NNW visible
05 Dec 5.9 20:46:06 10° NW 20:59:34 44° NNE 21:01:09 43° NE visible
05 Dec 6.9 22:51:35 10° WNW 22:56:02 24° WNW 22:56:02 24° WNW visible
06 Dec 6.4 19:38:20 10° NW 19:50:53 36° NNE 19:59:39 19° ENE visible
06 Dec 5.8 21:43:08 10° NW 21:54:32 56° NNW 21:54:32 56° NNW visible
07 Dec 5.8 20:35:07 10° NW 20:49:03 53° NNE 20:53:10 43° ENE visible
07 Dec 6.5 22:40:37 10° WNW 22:48:04 37° WNW 22:48:04 37° WNW visible
08 Dec 6.2 19:27:36 10° NW 19:40:26 42° NNE 19:51:57 14° E visible
08 Dec 5.5 21:32:08 10° WNW 21:46:47 79° NNE 21:46:52 79° NNE visible
08 Dec 7.3 23:38:59 10° W 23:41:46 18° W 23:41:46 18° W visible
09 Dec 5.8 20:24:15 10° NW 20:38:22 63° NNE 20:45:48 32° E visible
09 Dec 6.0 22:29:50 10° WNW 22:40:44 55° W 22:40:44 55° W visible
10 Dec 6.1 19:16:57 10° NW 19:29:49 50° NNE 19:43:20 10° E visible
10 Dec 5.6 21:21:20 10° WNW 21:35:59 88° SSW 21:39:51 57° ESE visible
10 Dec 6.9 23:28:33 10° W 23:34:47 28° WSW 23:34:47 28° WSW visible
11 Dec 5.8 20:13:32 10° WNW 20:27:33 74° NNE 20:39:05 18° ESE visible
11 Dec 5.9 22:19:15 10° WNW 22:33:26 59° SSW 22:34:02 58° SSW visible
12 Dec 7.5 00:28:33 10° WSW 00:28:59 11° WSW 00:28:59 11° WSW visible
12 Dec 6.0 19:06:25 10° NW 19:19:06 58° NNE 19:33:10 10° ESE visible
12 Dec 5.8 21:10:45 10° WNW 21:25:08 76° SSW 21:33:25 30° SE visible
12 Dec 6.6 23:18:20 10° W 23:28:22 35° SW 23:28:22 35° SW visible
